Flag for U.S.A. Weather past 2 weeks in Tallahassee, Florida, U.S.A.

Now
N/A

Clear.


Feels Like: N/A
Forecast: 70 / 90 °F
Wind: N/A

Location: Tallahassee Regional Airport

Current Time: Jul 30, 2014 at 5:45:20 AM

Latest Report: Jul 30, 2014 at 3:53 AM


Visibility: N/A

Pressure: N/A

Humidity: N/A

Dew point: N/A

Location of TallahasseeLocation

Historic Weather in Tallahassee — Graph

°F

Tallahassee temperature yesterday

Maximum temperature yesterday: 92 °F (at 2:53 PM)
Minimum temperature yesterday: 74 °F (at 5:53 AM)
Average temperature yesterday: 84 °F

Past Weeks' High & Low Weather Summary

 TemperatureHumidityPressure
High100 °F (Jul 28, 4:53 PM)99% (Jul 28, 11:53 PM)30.10 "Hg (Jul 28, 11:53 PM)
Low69 °F (Jul 18, 5:53 AM)29% (Jul 17, 3:53 PM)29.85 "Hg (Jul 16, 6:53 PM)
Average81 °F74%30.01 "Hg
* Reported Jul 15 3:53 AM — Jul 30 3:53 AM, Tallahassee, Weather by CustomWeather, © 2014

Note: Actual official high and low records may vary slightly from our data, if they occured in-between our weather recording intervals... More about our weather records

Advertising

Tallahassee weather history for previous 24 hours

 ConditionsComfort  
Time TempWeatherWind HumidityBarometerVisibility
3:53 AM
Jul 30
N/AClear.N/AN/AN/AN/A
1:53 AM71 °FMild.No wind78%N/A10 mi
10:53 PM
Jul 29
78 °FPassing clouds.5 mph65%29.99 "Hg10 mi
9:53 PM82 °FPassing clouds.6 mph57%29.97 "Hg10 mi
8:53 PM84 °FPartly sunny.6 mph54%29.95 "Hg10 mi
7:53 PM89 °FPartly sunny.9 mph40%29.92 "Hg10 mi
6:53 PM89 °FPartly sunny.10 mph43%29.92 "Hg10 mi
5:53 PM90 °FBroken clouds.8 mph41%29.94 "Hg10 mi
4:53 PM92 °FPartly sunny.9 mph36%29.95 "Hg10 mi
3:53 PM91 °FScattered clouds.12 mph34%29.95 "Hg10 mi
2:53 PM92 °FPartly sunny.13 mph38%29.95 "Hg10 mi
1:53 PM91 °FScattered clouds.9 mph41%29.96 "Hg10 mi
12:53 PM89 °FScattered clouds.3 mph43%29.98 "Hg10 mi
11:53 AM88 °FScattered clouds.3 mph57%29.99 "Hg10 mi
10:53 AM82 °FScattered clouds.5 mph62%29.98 "Hg10 mi
9:53 AM80 °FScattered clouds.6 mph76%29.98 "Hg10 mi
8:53 AM77 °FScattered clouds.5 mph85%29.96 "Hg10 mi
7:53 AM74 °FBroken clouds.3 mph96%29.93 "Hg10 mi
6:53 AM74 °FPassing clouds.3 mph94%29.93 "Hg10 mi
5:53 AM74 °FLight fog.6 mph95%29.91 "Hg10 mi
Weather by CustomWeather, © 2014

See weather overviewHow to use our weather pages